星链-33909 (STARLINK-33909)

导读

STARLINK-33909是美国于2025年5月4日发射的星链系列卫星,隶属于SpaceX打造的星链卫星互联网星座项目。星链系统旨在为全球提供高速低延迟互联网服务,该卫星的发射延续了星链星座持续组网扩张的节奏,进一步完善了星座的覆盖能力与服务容量,推动全球卫星互联网布局持续推进。

基本信息
目录编号:
63804
目录名称:
STARLINK-33909
国际标识:
2025-092A
轨道中心:
EARTH
卫星名称:
星链-33909
卫星全名:
星链-33909 (STARLINK-33909)
卫星状态:
在轨 (已飞行488 天)
发射日期:
2025-05-04 UTC
国别 :
美国 (US)
星等 :
--
轨道信息
数据来源 国际轨道数据
星历时间: 2026-09-04T08:34:26+0800
9小时前
查看轨道信息
半长轴: 6861.173km
偏心率: 0.0001955
轨道倾角: 43.001°
近地点辐角 272.293°
升交点赤经 245.839°
平近点角 87.770°
近地点: 481.694km
远地点: 484.378km
周期: 94.266分钟
每日圈数: 15.275844
详细信息
固有亮度:
5
最大亮度:
2.5
卫星平台:
Starlink V1.0
覆盖范围:
全球
运营商:
太空探索技术公司
运营商所在国:
美国
制造商(研发单位):
太空探索技术公司
制造商所在国:
美国
使用方式:
暂无
卫星简介
Starlink 计划是 SpaceX 推出的全球卫星互联网项目,通过发射低轨道卫星,为全球尤其是偏远地区提供高速、低延迟的互联网服务。自 2019 年起,Starlink 已部署数千颗卫星,旨在缩小全球数字鸿沟,推动互联网普及。该项目还为军事、航空等行业提供通信支持,带来广泛经济效益。
2D轨道图
3D轨道图
轨道高度分析图
轨道倾角分析图
轨道综合分析图
查看轨道综合分析图